Weather History for KIKK - June, 2014

Change the Weather History Date:

Tuesday, June 3, 2014

  Actual Average Record
Temperature  
Mean Temperature 74 °F -  
Max Temperature 83 °F 77 °F 92 °F (1991)
Min Temperature 65 °F 53 °F 42 °F (2013)
Cooling Degree Days 9    
Growing Degree Days 24 (Base 50)    
Moisture  
Dew Point 57 °F    
Average Humidity 57    
Maximum Humidity 87    
Minimum Humidity 30    
Precipitation  
Precipitation 0.00 in - - ()
Sea Level Pressure  
Sea Level Pressure 29.93 in    
Wind  
Wind Speed 10 mph (West)    
Max Wind Speed 16 mph    
Max Gust Speed 21 mph    
Visibility 10 miles    
Events      
Averages and records for this station are not official NWS values.
T = Trace of Precipitation, MM = Missing Value Source: NWS Daily Summary

Daily Weather History Graph

Daily Weather History Graph

Search for Another Location

Airport or City:

Trip Planner

Search our weather history database for the weather conditions in past years. The results will help you decide how hot, cold, wet, or windy it might be!

Date:

Astronomy

Jun. 03, 2014 Rise Set
Actual Time 5:20 AM CDT 8:19 PM CDT
Civil Twilight 4:47 AM CDT 8:52 PM CDT
Nautical Twilight 4:05 AM CDT 9:34 PM CDT
Astronomical Twilight 3:16 AM CDT 10:23 PM CDT
Moon 10:45 AM CDT (6/3) No Moon Set
Length of Visible Light 16h 04m
Length of Day
14h 58m
Waxing Crescent, 30% of the Moon is Illuminated
Jun 3
Waxing Crescent
Jun 5
First Quarter
Jun 12
Full
Jun 19
Last Quarter
Jun 27
New

Hourly Weather History & Observations

Time (CDT) Temp. Heat Index Dew Point Humidity Pressure Visibility Wind Dir Wind Speed Gust Speed Precip Events Conditions
12:15 AM 72.3 °F - 66.2 °F 81% 29.90 in 10.0 mi SSW 15.0 mph 18.4 mph N/A   Mostly Cloudy
12:35 AM 71.8 °F - 66.4 °F 83% 29.90 in 10.0 mi SSW 13.8 mph - N/A   Scattered Clouds
12:55 AM 71.6 °F - 66.4 °F 84% 29.90 in 10.0 mi SW 12.7 mph - N/A   Scattered Clouds
1:15 AM 71.8 °F - 66.2 °F 83% 29.90 in 10.0 mi SW 12.7 mph - N/A   Mostly Cloudy
1:35 AM 72.0 °F - 66.2 °F 82% 29.89 in 10.0 mi SW 15.0 mph - N/A   Scattered Clouds
1:55 AM 71.2 °F - 65.8 °F 83% 29.89 in 10.0 mi SW 12.7 mph 18.4 mph N/A   Clear
2:15 AM 70.9 °F - 65.7 °F 83% 29.89 in 10.0 mi SW 13.8 mph - N/A   Clear
2:35 AM 71.1 °F - 65.5 °F 82% 29.89 in 10.0 mi SW 10.4 mph - N/A   Clear
2:55 AM 70.9 °F - 65.5 °F 83% 29.89 in 10.0 mi SW 11.5 mph 17.3 mph N/A   Clear
3:15 AM 70.7 °F - 65.3 °F 83% 29.90 in 10.0 mi SW 11.5 mph - N/A   Clear
3:35 AM 70.2 °F - 65.3 °F 85% 29.90 in 10.0 mi SW 10.4 mph - N/A   Clear
3:55 AM 70.0 °F - 65.3 °F 85% 29.90 in 10.0 mi SW 10.4 mph - N/A   Clear
4:15 AM 69.8 °F - 64.9 °F 84% 29.91 in 10.0 mi WSW 11.5 mph - N/A   Clear
4:35 AM 69.3 °F - 64.6 °F 85% 29.91 in 10.0 mi WSW 10.4 mph - N/A   Clear
4:55 AM 68.9 °F - 64.4 °F 86% 29.92 in 10.0 mi WSW 9.2 mph - N/A   Clear
5:15 AM 68.4 °F - 64.4 °F 87% 29.92 in 10.0 mi WSW 6.9 mph - N/A   Clear
5:35 AM 68.4 °F - 64.0 °F 86% 29.93 in 10.0 mi WSW 6.9 mph - N/A   Clear
5:55 AM 68.9 °F - 63.9 °F 84% 29.93 in 10.0 mi WSW 9.2 mph - N/A   Clear
6:15 AM 69.1 °F - 63.9 °F 83% 29.94 in 10.0 mi West 9.2 mph - N/A   Clear
6:35 AM 69.8 °F - 63.9 °F 81% 29.95 in 10.0 mi West 8.1 mph - N/A   Clear
6:55 AM 70.7 °F - 64.0 °F 79% 29.95 in 10.0 mi West 10.4 mph - N/A   Clear
7:15 AM 71.4 °F - 63.3 °F 76% 29.95 in 10.0 mi West 9.2 mph - N/A   Clear
7:35 AM 72.5 °F - 61.3 °F 68% 29.95 in 10.0 mi West 12.7 mph - N/A   Clear
7:55 AM 73.6 °F - 60.6 °F 64% 29.96 in 10.0 mi West 11.5 mph 19.6 mph N/A   Clear
8:15 AM 73.9 °F - 59.0 °F 59% 29.96 in 10.0 mi WNW 10.4 mph 18.4 mph N/A   Clear
8:35 AM 74.3 °F - 57.4 °F 55% 29.97 in 10.0 mi West 13.8 mph 19.6 mph N/A   Clear
8:55 AM 74.7 °F - 56.3 °F 53% 29.97 in 10.0 mi West 16.1 mph 20.7 mph N/A   Clear
9:15 AM 75.7 °F - 56.3 °F 51% 29.97 in 10.0 mi WNW 12.7 mph 19.6 mph N/A   Clear
9:35 AM 76.3 °F - 56.3 °F 50% 29.97 in 10.0 mi WNW 10.4 mph 17.3 mph N/A   Clear
9:55 AM 77.2 °F - 56.1 °F 48% 29.97 in 10.0 mi West 12.7 mph - N/A   Clear
10:15 AM 77.9 °F - 55.8 °F 46% 29.98 in 10.0 mi WNW 12.7 mph 18.4 mph N/A   Clear
10:35 AM 78.1 °F - 54.7 °F 44% 29.98 in 10.0 mi WNW 9.2 mph - N/A   Clear
10:55 AM 78.4 °F - 54.3 °F 43% 29.99 in 10.0 mi WNW 15.0 mph 20.7 mph N/A   Clear
11:15 AM 78.8 °F - 54.3 °F 43% 29.99 in 10.0 mi WNW 11.5 mph 17.3 mph N/A   Clear
11:35 AM 79.0 °F - 52.7 °F 40% 29.99 in 10.0 mi West 13.8 mph 18.4 mph N/A   Clear
11:55 AM 79.3 °F - 52.3 °F 39% 30.00 in 10.0 mi West 12.7 mph 20.7 mph N/A   Clear
12:15 PM 80.2 °F 80.1 °F 53.6 °F 40% 29.99 in 10.0 mi WNW 12.7 mph 19.6 mph N/A   Clear
12:35 PM 79.3 °F - 53.6 °F 41% 29.99 in 10.0 mi WNW 10.4 mph - N/A   Clear
12:55 PM 80.2 °F - 52.3 °F 38% 29.99 in 10.0 mi WNW 12.7 mph 17.3 mph N/A   Clear
1:15 PM 80.2 °F 80.1 °F 53.8 °F 40% 29.97 in 10.0 mi NW 3.5 mph - N/A   Clear
1:35 PM 80.2 °F 80.0 °F 53.2 °F 39% 29.97 in 10.0 mi West 11.5 mph 17.3 mph N/A   Clear
1:55 PM 81.0 °F 80.5 °F 54.1 °F 39% 29.97 in 10.0 mi West 9.2 mph 16.1 mph N/A   Clear
2:15 PM 80.1 °F 80.0 °F 54.0 °F 40% 29.96 in 10.0 mi West 12.7 mph 17.3 mph N/A   Clear
2:35 PM 79.9 °F - 52.0 °F 38% 29.96 in 10.0 mi West 9.2 mph - N/A   Clear
2:55 PM 82.4 °F 81.4 °F 53.8 °F 37% 29.95 in 10.0 mi NW 8.1 mph 20.7 mph N/A   Clear
3:15 PM 82.0 °F - 52.2 °F 35% 29.95 in 10.0 mi West 11.5 mph 18.4 mph N/A   Clear
3:35 PM 82.8 °F - 51.6 °F 34% 29.94 in 10.0 mi WNW 9.2 mph 18.4 mph N/A   Clear
3:55 PM 82.6 °F - 50.2 °F 32% 29.94 in 10.0 mi West 6.9 mph 17.3 mph N/A   Clear
4:15 PM 82.9 °F - 50.5 °F 32% 29.94 in 10.0 mi West 10.4 mph 18.4 mph N/A   Clear
4:35 PM 83.3 °F - 51.1 °F 33% 29.93 in 10.0 mi West 9.2 mph 16.1 mph N/A   Clear
4:55 PM 82.6 °F - 49.5 °F 31% 29.93 in 10.0 mi WNW 9.2 mph 17.3 mph N/A   Clear
5:15 PM 82.9 °F - 50.4 °F 32% 29.92 in 10.0 mi West 9.2 mph - N/A   Clear
5:35 PM 82.9 °F - 49.6 °F 31% 29.91 in 10.0 mi WNW 10.4 mph - N/A   Clear
5:55 PM 82.2 °F - 47.7 °F 30% 29.91 in 10.0 mi NW 9.2 mph - N/A   Clear
6:15 PM 82.2 °F - 49.3 °F 32% 29.89 in 10.0 mi WNW 8.1 mph - N/A   Clear
6:35 PM 81.7 °F - 50.0 °F 33% 29.90 in 10.0 mi WNW 4.6 mph - N/A   Clear
6:55 PM 81.1 °F - 48.6 °F 32% 29.90 in 10.0 mi WNW 6.9 mph - N/A   Clear
7:15 PM 80.6 °F - 47.3 °F 31% 29.91 in 10.0 mi WNW 5.8 mph - N/A   Clear
7:35 PM 78.8 °F - 48.4 °F 34% 29.91 in 10.0 mi WNW 5.8 mph - N/A   Clear
7:55 PM 77.4 °F - 49.3 °F 37% 29.90 in 10.0 mi Calm Calm - N/A   Clear
8:15 PM 74.7 °F - 50.2 °F 42% 29.90 in 10.0 mi Calm Calm - N/A   Clear
8:35 PM 70.7 °F - 51.4 °F 50% 29.90 in 10.0 mi Calm Calm - N/A   Clear
8:55 PM 71.2 °F - 52.0 °F 51% 29.89 in 10.0 mi Calm Calm - N/A   Clear
9:15 PM 68.4 °F - 52.0 °F 56% 29.92 in 10.0 mi Calm Calm - N/A   Clear
9:35 PM 68.4 °F - 51.6 °F 55% 29.93 in 10.0 mi Calm Calm - N/A   Clear
9:55 PM 68.4 °F - 52.3 °F 57% 29.91 in 10.0 mi Calm Calm - N/A   Clear
10:15 PM 65.5 °F - 54.5 °F 68% 29.92 in 10.0 mi Calm Calm - N/A   Clear
10:35 PM 66.0 °F - 54.9 °F 67% 29.90 in 10.0 mi Calm Calm - N/A   Clear
10:55 PM 66.6 °F - 56.7 °F 70% 29.90 in 10.0 mi Calm Calm - N/A   Clear
11:15 PM 66.6 °F - 55.6 °F 68% 29.89 in 10.0 mi Calm Calm - N/A   Clear
11:35 PM 67.5 °F - 54.0 °F 62% 29.91 in 10.0 mi WSW 4.6 mph - N/A   Clear
11:55 PM 68.0 °F - 54.0 °F 61% 29.90 in 10.0 mi NNW 3.5 mph - N/A   Clear